[[{"header":{"parameterUnit":"m.s-1","parameterCategory":1,"la1":30.2991,"la2":30.254,"lo1":-89.0895,"lo2":-89.0444,"dy":0.0017,"dx":0.0017,"nx":28,"ny":28,"refTime":"2025-12-13T03:00:00:Z","depth":0,"parameterNumber":2,"parameterNumberName":"U-component_of_WINDS"},"data":[0,0,0,0,0,0,0,0,0,0,0,0,0,0,0,0,0,0,0,0,0,0,0,0,0,0,0,0,0,0,0,0,0,0,0,0,0,0,0,0,0,0,0,0,0,0,0,0,0,0,0,0,0,0,0,0,0,0,-1.483,-1.4831,0,-1.4876,-1.4876,-1.4877,-1.4862,-1.4861,-1.486,-1.4859,-1.4907,-1.4909,-1.4911,0,0,0,0,0,0,0,0,0,0,0,0,0,-1.4732,-1.4734,-1.483,-1.4831,-1.4832,-1.4876,-1.4876,-1.4877,-1.4862,-1.4861,-1.486,-1.4859,-1.4906,-1.4908,-1.4911,0,0,0,0,0,0,0,0,0,0,0,0,0,-1.4776,-1.4735,-1.483,-1.4829,-1.483,-1.4876,-1.4876,-1.4877,-1.4862,-1.4861,-1.4859,-1.4858,-1.4905,-1.4908,-1.4911,-1.4961,0,0,-1.4921,-1.4923,0,0,0,0,0,0,0,0,-1.4773,-1.4779,-1.4829,-1.483,-1.483,-1.4862,-1.4859,-1.4905,-1.4863,-1.485,-1.4859,-1.4857,-1.4893,-1.4897,-1.4909,-1.4963,-1.4965,-1.4922,-1.4924,-1.4925,-1.4926,0,0,0,0,0,0,0,-1.477,-1.4777,-1.4848,-1.483,-1.483,-1.4827,-1.4832,-1.4868,-1.4879,-1.4851,-1.485,-1.4856,-1.4893,-1.4906,-1.491,-1.4966,-1.4922,-1.4925,-1.4927,-1.4928,-1.5064,-1.5065,0,0,0,0,0,0,-1.4767,-1.4775,-1.4847,-1.485,-1.4797,-1.483,-1.4835,-1.4853,-1.4879,-1.4881,-1.4857,-1.4855,-1.4901,-1.4906,-1.4911,-1.4971,-1.4925,-1.4928,-1.493,-1.5062,-1.5064,-1.5066,0,0,0,0,0,0,-1.4765,-1.4773,-1.4845,-1.4812,-1.4821,-1.4833,-1.4853,-1.4855,-1.4867,-1.4883,-1.4885,-1.4868,-1.49,-1.4907,-1.4949,-1.4972,-1.493,-1.4933,-1.506,-1.5063,-1.5065,-1.509,0,0,0,0,0,0,-1.4762,-1.4773,-1.4791,-1.4813,-1.4823,-1.4881,-1.4855,-1.4857,-1.4873,-1.4871,-1.4894,-1.4896,-1.4899,-1.4944,-1.4952,-1.4976,-1.4935,-1.5058,-1.5061,-1.5064,-1.5087,-1.5093,-1.5098,0,0,0,0,0,-1.4759,-1.4797,-1.4792,-1.4801,-1.4846,-1.4883,-1.4888,-1.4891,-1.4875,-1.4894,-1.4904,-1.4896,-1.4969,-1.4948,-1.4957,-1.4983,-1.5056,-1.506,-1.5064,-1.5085,-1.5092,-1.5098,0,0,0,0,0,0,-1.4779,-1.48,-1.4795,-1.4841,-1.486,-1.488,-1.4904,-1.4898,-1.4923,-1.4919,-1.4922,-1.4927,-1.497,-1.4981,-1.4958,-1.5032,-1.501,-1.5016,-1.5023,-1.503,-1.5035,-1.5031,-1.4938,0,0,0,0,0,-1.4788,-1.4816,-1.4833,-1.4872,-1.4882,-1.4892,-1.4907,-1.4908,-1.4927,-1.4935,-1.4949,-1.4968,-1.4996,-1.5014,-1.504,-1.5089,-1.5094,-1.5111,-1.5116,-1.5121,-1.5125,-1.5152,-1.5159,-1.5078,-1.5078,-1.5078,0,0,-1.4809,-1.4824,-1.4841,-1.4877,-1.4891,-1.492,-1.4898,-1.4929,-1.495,-1.494,-1.498,-1.4991,-1.5013,-1.5059,-1.5079,-1.5069,-1.5149,-1.5126,-1.5129,-1.5131,-1.5156,-1.5164,-1.5171,-1.508,-1.508,-1.5079,0,0,-1.486,-1.4875,-1.4909,-1.4924,-1.4946,-1.4952,-1.4961,-1.4981,-1.4988,-1.5028,-1.5021,-1.5046,-1.5094,-1.511,-1.5124,-1.5182,-1.5175,-1.5191,-1.5219,-1.5245,-1.5251,-1.5257,-1.5276,-1.5284,-1.5196,-1.5196,-1.5196,0,-1.4883,-1.4925,-1.4927,-1.4958,-1.4974,-1.4966,-1.5001,-1.5016,-1.5046,-1.5057,-1.5045,-1.5104,-1.5118,-1.5167,-1.5181,-1.5194,-1.5203,-1.5187,-1.525,-1.5256,-1.5261,-1.528,-1.5287,-1.5197,-1.5197,-1.5197,-1.5197,0,-1.4951,-1.498,-1.5005,-1.5034,-1.5053,-1.5085,-1.5093,-1.5112,-1.5111,-1.5118,-1.5159,-1.5177,-1.5206,-1.5218,-1.5218,-1.5267,-1.526,-1.5249,-1.5227,-1.527,-1.5288,-1.5295,-1.52,-1.5199,-1.5199,-1.5198,0,0,-1.5015,-1.5044,-1.5053,-1.5066,-1.509,-1.5113,-1.5146,-1.5174,-1.519,-1.5212,-1.5239,-1.528,-1.527,-1.5286,-1.5288,-1.531,-1.5354,-1.5297,-1.5297,-1.5306,-1.5409,-1.5415,-1.5424,-1.535,-1.5352,-1.5353,-1.5406,0,-1.5067,-1.5124,-1.5127,-1.5178,-1.5205,-1.5199,-1.5227,-1.5246,-1.5254,-1.5278,-1.5288,-1.5316,-1.5301,-1.5311,-1.5333,-1.5344,-1.5375,-1.534,-1.5375,-1.5376,-1.5368,-1.5433,-1.5441,-1.549,-1.5413,-1.5415,-1.5416,0,-1.5135,-1.5158,-1.5212,-1.5233,-1.5244,-1.5269,-1.5295,-1.5319,-1.534,-1.5344,-1.5363,-1.5361,-1.5395,-1.5373,-1.542,-1.5396,-1.5411,-1.5419,-1.5421,-1.5423,-1.5397,-1.5436,-1.5506,-1.5513,-1.5427,-1.5426,-1.5425,0,-1.5175,-1.522,-1.5257,-1.5269,-1.5294,-1.5312,-1.5323,-1.5342,-1.5359,-1.5382,-1.5393,-1.5421,-1.5435,-1.5456,-1.5462,-1.5446,-1.5509,-1.5487,-1.5513,-1.5513,-1.5525,-1.5524,-1.5597,-1.5537,-1.5537,-1.5537,-1.5537,0,-1.5232,-1.5265,-1.5275,-1.5298,-1.5335,-1.5339,-1.5376,-1.5386,-1.5404,-1.5429,-1.5426,-1.545,-1.5457,-1.5482,-1.5487,-1.5524,-1.5531,-1.5536,-1.5536,-1.5535,-1.5534,-1.5544,-1.554,-1.5539,-1.5538,-1.5538,-1.5538,0,-1.5282,-1.529,-1.5331,-1.5351,-1.5357,-1.5383,-1.5401,-1.5423,-1.5432,-1.5464,-1.5471,-1.5484,-1.5514,-1.5522,-1.5558,-1.5562,-1.5605,-1.5603,-1.5597,-1.5597,-1.5622,-1.5619,-1.5702,-1.5713,-1.5647,-1.5648,-1.5648,0,-1.5317,-1.5342,-1.5365,-1.5382,-1.5394,-1.542,-1.5437,-1.5443,-1.546,-1.5486,-1.5506,-1.5535,-1.5558,-1.5606,-1.5619,-1.5646,-1.5644,-1.5672,-1.5648,-1.5646,-1.5643,-1.5641,-1.5643,-1.5675,-1.5676,-1.5677,-1.5677,0,-1.5378,-1.5381,-1.5405,-1.5431,-1.5451,-1.5472,-1.5492,-1.5506,-1.5514,-1.5534,-1.5564,-1.5583,-1.5619,-1.5648,-1.5675,-1.5688,-1.5684,-1.5685,-1.5692,-1.569,-1.5685,-1.5687,-1.5608,-1.5682,-1.5682,-1.5681,-1.5681,-1.5681,-1.5421,-1.5442,-1.5462,-1.5489,-1.5505,-1.5523,-1.5545,-1.5556,-1.5581,-1.561,-1.5612,-1.5645,-1.5665,-1.5702,-1.5716,-1.5742,-1.5733,-1.5744,-1.5746,-1.5749,-1.575,-1.5682,-1.5747,-1.5747,-1.5747,-1.5747,-1.5746,0,-1.548,-1.5493,-1.5518,-1.5545,-1.5567,-1.5562,-1.5583,-1.5602,-1.563,-1.5649,-1.5672,-1.5707,-1.5735,-1.575,-1.5778,-1.5796,-1.5795,-1.5803,-1.5801,-1.5803,-1.5756,-1.5747,-1.5803,-1.5803,-1.5803,-1.5803,-1.5803,-1.5803,-1.5514,-1.555,-1.5555,-1.5599,-1.5612,-1.5643,-1.5656,-1.5673,-1.5688,-1.5727,-1.575,-1.5759,-1.5777,-1.5807,-1.5832,-1.5836,-1.5846,-1.5855,-1.5857,-1.5813,-1.5807,-1.5801,-1.5792,-1.5857,-1.5857,-1.5902,-1.5903,-1.5903]},{"header":{"parameterUnit":"m.s-1","parameterCategory":1,"la1":30.2991,"la2":30.254,"lo1":-89.0895,"lo2":-89.0444,"dy":0.0017,"dx":0.0017,"nx":28,"ny":28,"refTime":"2025-12-13T03:00:00:Z","depth":0,"parameterNumber":3,"parameterNumberName":"V-component_of_WINDS"},"data":[0,0,0,0,0,0,0,0,0,0,0,0,0,0,0,0,0,0,0,0,0,0,0,0,0,0,0,0,0,0,0,0,0,0,0,0,0,0,0,0,0,0,0,0,0,0,0,0,0,0,0,0,0,0,0,0,0,0,0.896,0.896,0,0.9018,0.9019,0.9019,0.9017,0.9017,0.9016,0.9015,0.9073,0.9076,0.9078,0,0,0,0,0,0,0,0,0,0,0,0,0,0.8845,0.8847,0.8959,0.896,0.8961,0.9018,0.9019,0.902,0.9018,0.9017,0.9016,0.9015,0.9073,0.9075,0.9078,0,0,0,0,0,0,0,0,0,0,0,0,0,0.8898,0.8848,0.8959,0.8967,0.8968,0.9018,0.9019,0.902,0.9018,0.9017,0.9015,0.9014,0.9072,0.9075,0.9078,0.9124,0,0,0.9089,0.9091,0,0,0,0,0,0,0,0,0.8895,0.8902,0.8965,0.8966,0.8968,0.9009,0.9,0.9055,0.9018,0.8999,0.9015,0.9014,0.9053,0.9058,0.9071,0.9127,0.9129,0.9089,0.9091,0.9093,0.9094,0,0,0,0,0,0,0,0.8892,0.89,0.8983,0.8966,0.8968,0.8967,0.8973,0.901,0.9032,0.9001,0.9001,0.9008,0.9053,0.9068,0.9073,0.913,0.9089,0.9092,0.9094,0.9096,0.9227,0.9229,0,0,0,0,0,0,0.8886,0.8897,0.8981,0.8984,0.8928,0.897,0.8977,0.8997,0.9032,0.9036,0.9009,0.9007,0.9063,0.9069,0.9075,0.9132,0.9093,0.9096,0.9098,0.9226,0.9228,0.9229,0,0,0,0,0,0,0.8884,0.8894,0.8978,0.8941,0.8951,0.8973,0.8996,0.8999,0.9014,0.9038,0.9041,0.902,0.9062,0.907,0.9112,0.9134,0.9098,0.9101,0.9224,0.9226,0.9228,0.9245,0,0,0,0,0,0,0.8881,0.8893,0.8911,0.8941,0.8953,0.9015,0.8997,0.9001,0.902,0.9019,0.9049,0.9053,0.9062,0.9107,0.9116,0.9138,0.9103,0.9222,0.9225,0.9228,0.9243,0.9248,0.9252,0,0,0,0,0,0.8877,0.8912,0.8912,0.8922,0.8976,0.9017,0.9024,0.9034,0.9022,0.904,0.9055,0.9052,0.913,0.9111,0.9121,0.9145,0.9221,0.9224,0.9227,0.9241,0.9247,0.9252,0,0,0,0,0,0,0.8883,0.8917,0.8916,0.8963,0.8987,0.9016,0.9039,0.9039,0.9067,0.9064,0.9075,0.9082,0.9125,0.9139,0.9118,0.9191,0.9174,0.9179,0.9181,0.9187,0.9191,0.9187,0.9106,0,0,0,0,0,0.889,0.8921,0.8948,0.8987,0.8999,0.9017,0.9035,0.9041,0.9066,0.9076,0.9094,0.9118,0.9149,0.9168,0.9197,0.9244,0.9252,0.9265,0.927,0.9273,0.9278,0.9306,0.9313,0.924,0.924,0.9239,0,0,0.8905,0.8927,0.8945,0.8989,0.9008,0.9039,0.9025,0.9059,0.9082,0.9081,0.9123,0.9137,0.9164,0.921,0.9231,0.9223,0.93,0.9277,0.928,0.9283,0.931,0.9317,0.9323,0.9242,0.9241,0.9241,0,0,0.8948,0.8967,0.9002,0.9022,0.9052,0.9064,0.9073,0.9102,0.9112,0.9154,0.9154,0.9182,0.9233,0.9253,0.927,0.9322,0.932,0.9331,0.9354,0.9381,0.9387,0.9392,0.9412,0.9419,0.9335,0.9335,0.9335,0,0.8962,0.901,0.902,0.9054,0.9074,0.9075,0.9111,0.9129,0.9166,0.918,0.917,0.9236,0.9254,0.9305,0.9318,0.9331,0.9342,0.9328,0.9385,0.9391,0.9396,0.9415,0.9422,0.9336,0.9336,0.9336,0.9336,0,0.9027,0.906,0.9085,0.9122,0.9144,0.9179,0.9194,0.9215,0.9219,0.9232,0.9276,0.9298,0.9332,0.9344,0.9348,0.9396,0.9391,0.9383,0.9366,0.9404,0.9422,0.9429,0.9338,0.9338,0.9337,0.9337,0,0,0.9076,0.9119,0.9128,0.9146,0.9179,0.9205,0.924,0.9274,0.9293,0.9318,0.9348,0.9392,0.9386,0.9405,0.9411,0.9434,0.9476,0.9424,0.9425,0.9434,0.9532,0.9539,0.9547,0.9474,0.9476,0.9477,0.953,0,0.9124,0.9187,0.9197,0.9252,0.9284,0.9285,0.9316,0.9339,0.9353,0.9381,0.9395,0.9426,0.9415,0.9427,0.945,0.9466,0.9496,0.9462,0.9503,0.9505,0.9498,0.9556,0.9563,0.9613,0.9537,0.9539,0.9539,0,0.9188,0.9217,0.9275,0.9306,0.9319,0.9347,0.938,0.9406,0.9434,0.9441,0.9464,0.9467,0.9503,0.9484,0.9535,0.9512,0.9529,0.9539,0.9542,0.9547,0.9525,0.9565,0.9628,0.9636,0.955,0.955,0.9549,0,0.922,0.9273,0.9316,0.933,0.9366,0.9386,0.9402,0.9428,0.9448,0.9476,0.949,0.9522,0.9539,0.9564,0.9576,0.956,0.9626,0.9608,0.9635,0.9635,0.9649,0.9649,0.9718,0.9658,0.9658,0.9658,0.9658,0,0.9273,0.9309,0.9331,0.9357,0.9398,0.9409,0.9449,0.9464,0.9488,0.9517,0.9519,0.9547,0.956,0.9589,0.9599,0.964,0.9648,0.9656,0.9658,0.9656,0.9656,0.9669,0.9666,0.966,0.9659,0.9659,0.9659,0,0.9316,0.9332,0.9378,0.9409,0.9418,0.9447,0.9473,0.9498,0.9511,0.9549,0.9558,0.9578,0.9613,0.9627,0.9669,0.9676,0.9724,0.9723,0.9715,0.9716,0.9743,0.9741,0.9825,0.9837,0.9768,0.9768,0.9769,0,0.935,0.9378,0.9412,0.9432,0.9449,0.9481,0.9502,0.9515,0.9536,0.957,0.9592,0.9627,0.9656,0.9711,0.973,0.9762,0.9763,0.979,0.9768,0.9766,0.9765,0.9764,0.9768,0.9795,0.9795,0.9796,0.9796,0,0.9408,0.9415,0.9445,0.9479,0.9505,0.9532,0.9558,0.9574,0.9591,0.9615,0.9651,0.9674,0.9718,0.9753,0.9787,0.9803,0.9803,0.9803,0.9811,0.9811,0.9806,0.9811,0.9728,0.9801,0.9801,0.98,0.98,0.98,0.9449,0.9474,0.9503,0.9537,0.9559,0.9583,0.9609,0.9626,0.9657,0.9694,0.9699,0.9739,0.9765,0.9811,0.9829,0.9859,0.9852,0.9864,0.9867,0.987,0.9873,0.98,0.9865,0.9865,0.9865,0.9865,0.9865,0,0.9509,0.9527,0.9559,0.9596,0.9624,0.9621,0.9651,0.9674,0.9708,0.9734,0.9762,0.9805,0.9839,0.986,0.9895,0.9915,0.9916,0.9924,0.9923,0.9927,0.9876,0.9867,0.9923,0.9923,0.9923,0.9923,0.9923,0.9923,0.9543,0.9587,0.9597,0.9652,0.967,0.9709,0.9726,0.9749,0.977,0.9817,0.9846,0.986,0.9884,0.9921,0.9952,0.9958,0.9971,0.9979,0.9985,0.9937,0.9931,0.9925,0.9916,0.9982,0.9982,1.0033,1.0034,1.0034]}]]